Print

CHIHRRCWA 000
TTAA00 KDVN 271404
HOURLY WEATHER ROUNDUP
NATIONAL WEATHER SERVICE QUAD CITIES IA IL
900 AM CDT WED AUG 27 2014

Note: "Fair" indicates few or no clouds below 12,000 feet with no
significant weather and/or obstructions to visibility.

* - These stations are not NWS stations...and not subject to NWS
quality control.  Some stations do not report weather such as fog.

...NORTHEAST IOWA..................................................

  
CITY           SKY/WX    TMP DP  RH WIND       PRES   REMARKS
DECORAH *      PTSUNNY   63  59  88 N3        30.19F                  
WATERLOO       MOSUNNY   68  57  68 E8        30.17R                  
OELWEIN *      MOSUNNY   68  57  68 E8        30.19R                  
INDEPENDENCE * MOSUNNY   66  57  72 E8        30.18R                  
DUBUQUE        MOSUNNY   68  59  73 NE5       30.18S                  

...SOUTHWEST AND SOUTH CENTRAL WISCONSIN...........................

  
CITY           SKY/WX    TMP DP  RH WIND       PRES   REMARKS
PRAIRIE DU CHI NOT AVBL                                               
BOSCOBEL       MOSUNNY   68  58  70 CALM      30.18S                  
LONE ROCK      MOSUNNY   70  59  68 CALM      30.18R                  
MINERAL POINT* SUNNY     70  55  60 NE6       30.18F                  
MONROE *       SUNNY     68  59  73 NE6       30.16F                  
JANESVILLE *   MOSUNNY   70  55  60 E6        30.15S                  

...EAST CENTRAL IOWA...............................................

  
CITY           SKY/WX    TMP DP  RH WIND       PRES   REMARKS
MARSHALLTOWN   PTSUNNY   66  61  84 E7        30.16S                  
NEWTON *       CLOUDY    66  63  88 E7        30.17R                  
VINTON *       PTSUNNY   70  61  72 E6        30.17S                  
CEDAR RAPIDS   CLOUDY    67  62  84 E6        30.16S                  
IOWA CITY      CLOUDY    68  62  81 VRB6      30.17R                  
MONTICELLO *   MOSUNNY   68  61  77 E7        30.16S                  
CLINTON *      PTSUNNY   68  61  77 E8        30.18S                  
DAVENPORT      PTSUNNY   70  60  70 NE9       30.16S                  

...NORTHWEST ILLINOIS..............................................

  
CITY           SKY/WX    TMP DP  RH WIND       PRES   REMARKS
FREEPORT *     MOSUNNY   68  62  80 NE3       30.19R                  
ROCKFORD       MOSUNNY   72  58  61 E8        30.16S                  
SAVANNA *      MOSUNNY   71  58  64 E6        30.16S                  
STERLING/R.F.* PTSUNNY   70  61  73 E8        30.16S                  
ROCHELLE *     MOSUNNY   68  61  76 NE6       30.15F                  
MOLINE         PTSUNNY   72  61  68 E10       30.14S                  
PERU *         MOSUNNY   72  64  76 E7        30.14F                  

...SOUTHEAST IOWA AND NORTHEAST MISSOURI...........................

  
CITY           SKY/WX    TMP DP  RH WIND       PRES   REMARKS
KNOXVILLE *    DRIZZLE   66  63  88 SE7       30.15S                  
OTTUMWA        LGT RAIN  67  64  90 NE5       30.15R                  
FAIRFIELD *    CLOUDY    68  64  88 NE5       30.15S                  
WASHINGTON *   CLOUDY    68  66  94 E7        30.15S                  
MT PLEASANT *  PTSUNNY   73  65  75 NE7       30.14F                  
BURLINGTON     MOSUNNY   73  66  78 E6        30.14R                  
KIRKSVILLE     CLOUDY    70  67  90 NW16G24   30.17R                  

...WESTERN ILLINOIS................................................

  
CITY           SKY/WX    TMP DP  RH WIND       PRES   REMARKS
MACOMB *       MOSUNNY   72  68  86 E6        30.15R                  
GALESBURG *    MOSUNNY   74  68  79 E6        30.14S                  
PEORIA         MOSUNNY   76  67  73 E8        30.13R                  
QUINCY         MOSUNNY   76  70  82 E8        30.11S                  

END...
  

USA.gov is the U.S. government's official web portal to all federal, state and local government web resources and services.